Fort Lewis, WA
on Saturday, January 5, 2013

Saturday
Previous Day Next Day
Daily Summary
 ActualAverage (KOLM)Record (KOLM)
Temperature
Mean Temperature °F 39°F  
Max Temperature 43°F 45°F 53°F (1956)
Min Temperature 37°F 34°F 4°F (1979)
Degree Days
Heating Degree Days 25 26  
Month to date heating degree days 130  
Since 1 July heating degree days 2400  
Cooling Degree Days 0 0  
Month to date cooling degree days 0  
Year to date cooling degree days 0  
Moisture
Dew Point 38°F   
Average Humidity 98    
Maximum Humidity 100    
Minimum Humidity 89    
Precipitation
Precipitation 0.02 in 0.26 in 1.95 in (1954)
Month to date precipitation 1.27  
Year to date precipitation 1.27  
Wind
Wind Speed 3 mph   
Max Wind Speed 12 mph   
Max Gust Speed mph   
Visibility 6 miles   
Events Fog , Rain   

Key: T is trace of precipitation, MM is missing value
Source: NWS Daily Summary
Time(PST)TemperatureDew PointHumidity Pressure Visibility Wind DirectionWind SpeedGust SpeedPrecipitationEvents Conditions
12:08 AM 39.2°F 39.2°F 100% 30.15 in 10.0 miles Calm Calm - N/A   Overcast
12:58 AM 38.3°F 38.1°F 99% 30.17 in 10.0 miles SE 4.6 mph - N/A   Overcast
1:58 AM 38.8°F 38.7°F 99% 30.17 in 1.8 miles SE 3.5 mph - N/A   Overcast
2:03 AM 39.2°F 37.4°F 93% 30.16 in 1.2 miles SSE 5.8 mph - N/A   Overcast
2:08 AM 39.2°F 37.4°F 93% 30.16 in 1.2 miles SE 5.8 mph - N/A   Overcast
2:13 AM 39.2°F 37.4°F 93% 30.16 in 1.0 miles SE 5.8 mph - N/A   Overcast
2:18 AM 39.2°F 37.4°F 93% 30.16 in 0.8 miles SSE 4.6 mph - N/A   Overcast
2:23 AM 39.2°F 37.4°F 93% 30.16 in 0.5 miles SSE 4.6 mph - N/A Fog Fog
2:28 AM 39.2°F 37.4°F 93% 30.16 in 0.8 miles SSE 4.6 mph - N/A   Overcast
2:38 AM 37.4°F 37.4°F 100% 30.16 in 0.8 miles SSE 3.5 mph - N/A   Overcast
2:43 AM 37.4°F 37.4°F 100% 30.17 in 1.0 miles SSE 5.8 mph - N/A   Overcast
2:48 AM 37.4°F 37.4°F 100% 30.16 in 1.2 miles SSE 4.6 mph - N/A   Overcast
2:53 AM 37.4°F 37.4°F 100% 30.16 in 1.5 miles SSE 2.3 mph - N/A   Mostly Cloudy
2:58 AM 37.4°F 37.4°F 100% 30.18 in 1.8 miles SE 2.3 mph - N/A   Mostly Cloudy
3:03 AM 39.2°F 37.4°F 93% 30.16 in 3.0 miles ESE 1.2 mph - N/A   Mostly Cloudy
3:08 AM 39.2°F 39.2°F 100% 30.16 in 4.0 miles SE 3.5 mph - N/A   Mostly Cloudy
3:53 AM 37.4°F 37.4°F 100% 30.17 in 10.0 miles SSE 6.9 mph - N/A   Mostly Cloudy
3:58 AM 37.4°F 37.4°F 100% 30.18 in 10.0 miles SSE 3.5 mph - N/A   Mostly Cloudy
4:03 AM 37.4°F 37.4°F 100% 30.16 in 7.0 miles SE 2.3 mph - N/A   Scattered Clouds
4:13 AM 37.4°F 37.4°F 100% 30.16 in 1.5 miles SE 4.6 mph - N/A   Mostly Cloudy
4:18 AM 37.4°F 37.4°F 100% 30.16 in 1.0 miles SE 4.6 mph - N/A   Mist
4:28 AM 39.2°F 37.4°F 93% 30.16 in 2.0 miles East 2.3 mph - N/A   Mostly Cloudy
4:33 AM 39.2°F 39.2°F 100% 30.16 in 2.5 miles ESE 3.5 mph - N/A   Overcast
4:38 AM 39.2°F 39.2°F 100% 30.16 in 1.5 miles SSE 2.3 mph - N/A   Overcast
4:43 AM 37.4°F 37.4°F 100% 30.15 in 1.2 miles Calm Calm - N/A   Overcast
4:48 AM 37.4°F 37.4°F 100% 30.15 in 1.0 miles Calm Calm - N/A   Overcast
4:53 AM 37.4°F 37.4°F 100% 30.16 in 0.8 miles Calm Calm - N/A   Overcast
4:58 AM 38.1°F 37.9°F 99% 30.18 in 0.8 miles ESE 2.3 mph - N/A   Overcast
5:13 AM 37.4°F 37.4°F 100% 30.15 in 0.5 miles ENE 1.2 mph - N/A Fog Fog
5:18 AM 37.4°F 37.4°F 100% 30.15 in 0.5 miles Calm Calm - N/A Fog Fog
5:23 AM 37.4°F 37.4°F 100% 30.16 in 0.8 miles SSE 6.9 mph - N/A   Mostly Cloudy
5:28 AM 37.4°F 37.4°F 100% 30.16 in 0.5 miles SSE 5.8 mph - N/A Fog Fog
5:38 AM 37.4°F 37.4°F 100% 30.15 in 0.5 miles ENE 1.2 mph - N/A Fog Fog
5:43 AM 37.4°F 37.4°F 100% 30.15 in 0.8 miles North 1.2 mph - N/A   Mist
5:48 AM 37.4°F 37.4°F 100% 30.16 in 0.8 miles Calm Calm - N/A   Mist
5:58 AM 37.9°F 37.6°F 99% 30.17 in 1.0 miles Calm Calm - N/A   Mist
6:03 AM 37.4°F 37.4°F 100% 30.15 in 1.2 miles ESE 3.5 mph - N/A   Scattered Clouds
6:08 AM 37.4°F 37.4°F 100% 30.15 in 2.0 miles East 3.5 mph - N/A   Scattered Clouds
6:13 AM 39.2°F 37.4°F 93% 30.16 in 3.0 miles ESE 4.6 mph - N/A   Scattered Clouds
6:43 AM 37.4°F 37.4°F 100% 30.16 in 9.0 miles Calm Calm - N/A   Mostly Cloudy
6:48 AM 37.4°F 37.4°F 100% 30.16 in 10.0 miles North 2.3 mph - N/A   Scattered Clouds
6:58 AM 38.1°F 37.9°F 99% 30.17 in 10.0 miles East 4.6 mph - N/A   Partly Cloudy
7:58 AM 39.6°F 39.2°F 99% 30.19 in 10.0 miles SSE 4.6 mph - N/A   Mostly Cloudy
8:03 AM 39.2°F 39.2°F 100% 30.17 in 10.0 miles South 4.6 mph - N/A   Mostly Cloudy
8:38 AM 39.2°F 39.2°F 100% 30.17 in 6.0 miles ENE 2.3 mph - N/A   Mostly Cloudy
8:58 AM 39.4°F 39.2°F 99% 30.20 in 7.0 miles West 3.5 mph - N/A   Scattered Clouds
9:43 AM 41.0°F 39.2°F 93% 30.19 in 9.0 miles Calm Calm - N/A   Mostly Cloudy
9:48 AM 41.0°F 39.2°F 93% 30.19 in 9.0 miles Calm Calm - N/A   Scattered Clouds
9:58 AM 40.3°F 40.1°F 99% 30.21 in 10.0 miles ENE 2.3 mph - N/A   Scattered Clouds
10:01 AM 41.0°F 41.0°F 100% 30.19 in 9.0 miles ENE 2.3 mph - N/A Rain Light Rain
10:41 AM 41.0°F 41.0°F 100% 30.18 in 10.0 miles East 5.8 mph - N/A   Clear
10:58 AM 41.4°F 41.0°F 99% 30.19 in 10.0 miles ENE 11.5 mph - 0.00 in   Clear
11:58 AM 42.6°F 40.5°F 92% 30.19 in 10.0 miles North 1.2 mph - N/A   Partly Cloudy
12:58 PM 43.3°F 41.0°F 91% 30.16 in 10.0 miles NNW 3.5 mph - N/A   Clear
1:58 PM 43.9°F 41.0°F 90% 30.14 in 10.0 miles SE 3.5 mph - 0.01 in   Clear
2:58 PM 42.3°F 40.1°F 92% 30.15 in 10.0 miles West 5.8 mph - N/A   Partly Cloudy
3:58 PM 41.9°F 39.4°F 91% 30.15 in 10.0 miles WSW 3.5 mph - N/A   Scattered Clouds
4:58 PM 40.3°F 38.1°F 92% 30.14 in 10.0 miles Calm Calm - N/A   Overcast
5:58 PM 39.0°F 38.3°F 97% 30.14 in 10.0 miles ESE 2.3 mph - N/A   Overcast
6:58 PM 38.3°F 37.8°F 98% 30.14 in 10.0 miles South 2.3 mph - N/A   Mostly Cloudy
7:58 PM 39.0°F 38.3°F 97% 30.14 in 10.0 miles WNW 2.3 mph - N/A   Overcast
8:30 PM 39.2°F 39.2°F 100% 30.12 in 10.0 miles Variable 2.3 mph - N/A   Overcast
8:39 PM 39.2°F 39.2°F 100% 30.12 in 10.0 miles SSW 2.3 mph - N/A   Overcast
8:49 PM 39.2°F 39.2°F 100% 30.12 in 10.0 miles SSW 5.8 mph - N/A   Overcast
8:58 PM 39.6°F 38.5°F 96% 30.14 in 8.0 miles South 6.9 mph - 0.00 in   Light Drizzle
9:05 PM 39.2°F 39.2°F 100% 30.13 in 10.0 miles SSE 6.9 mph - N/A   Overcast
9:25 PM 39.2°F 39.2°F 100% 30.12 in 10.0 miles South 5.8 mph - N/A   Overcast
9:58 PM 39.6°F 38.5°F 96% 30.15 in 10.0 miles South 8.1 mph - 0.01 in   Overcast
10:58 PM 40.1°F 38.1°F 93% 30.16 in 10.0 miles SSW 8.1 mph - N/A   Overcast
11:58 PM 40.6°F 37.8°F 89% 30.18 in 10.0 miles South 9.2 mph - N/A   Overcast
Moon Phase
Jan. 05 Jan. 11 Jan. 18 Jan. 26 Feb. 03
Sunrise:07:56 AM (PST) Moon Rise:12:55 AM (PST)1/5
Sunset:04:36 PM (PST) Moon Set:11:40 AM (PST)1/5

Copyright © 2014 The Weather Underground, Inc.